CZ-6A DEB, 54347

Orbit data source: Space-Track

CZ-6A DEB, 54347 is space debris in SSO originally from a launch on Fri, 11 Nov 2022 UTC launched from the Taiyaun Space Center, China (TSC). Debris objects in space refer to the collection of defunct objects orbiting the Earth. Examples of debris include non-operational satellites, rocket bodies, and fragments generated from explosions, collisions, or faulty payload assembly.

Loading next visibility...
Identifier
54347, 2022-151CS
Orbit
SSO
Country
Flag of CNCN / PRC
Related business
Manufacturer
SAST
Mission
Spacecraft
Bus & Motor
Unknown
Mass
Unknown
Launch date (UTC)
2022-11-11 (3 years ago)
Launch vehicle
Unknown
Launch site
Taiyaun Space Center, China (TSC)
Object type
Payload
Rocket body
Debris
Shape & HBR
Unknown shape, 0.1 m
Radar Cross Section
Small (<0.1 m²)

Expand to show TLE details & history
Last TLE update: 15 hours ago

TLE from 15 hours ago
0 CZ-6A DEB
1 54347U 22151CS  26130.00352102  .00000250  00000-0  10873-3 0  9998
2 54347  98.6662 151.5860 0104471 196.0418 163.7447 14.29503154181459
Epoch: 2026-05-10T00:05Z
TLE epoch observation values (Epoch: 2026-05-10T00:05:04.216Z)
Latitude
-0.00005°
Longitude
-77.4944°
Altitude
868.323 km
Speed
7.381 km/s
True Right ascension
10h 06m 20s
True Declination
0° 00' 00"
Sunlit
Object was in daylight at epoch
Visualization orbit readout
Latitude
Unknown
Longitude
Unknown
Altitude
Unknown
Speed
Unknown
Apparent Right ascension
Unknown
Apparent Declination
Unknown
Sunlit
N/A
Visualization observer readout
Local Sidereal Time
22:57:44
Azimuth
Unknown
Elevation
Unknown
Doppler factor
Unknown
Orbital elements
Apogee altitude
865.427 km
Perigee altitude
715.644 km
Semi-major axis
7,168.672 km
Eccentricity
0.01045
Inclination
98.6662°
RAAN
151.586°
Arg. of periapsis
196.0418°
True anomaly
164.07565°
Mean anomaly
163.7447°
Eccentric anomaly
163.91059°
Mean motion
3.5759 °/min
Orbital period
100.67 mins
BSTAR
0.00010873
Loading maneuver chart data...
Computing Atmospheric mass density...

Documentation

Showing up to 5 results
|